Time,TemperatureF,DewpointF,PressureIn,WindDirection,WindDirectionDegrees,WindSpeedMPH,WindSpeedGustMPH,Humidity,HourlyPrecipIn,Conditions,Clouds,dailyrainin,SoftwareType,DateUTC
2013-01-22 00:00:00,20.7,11.5,29.83,NW,309,0.0,12.0,67,0.00,,---,0.00,VWS V14.01,2013-01-22 05:00:00,
2013-01-22 00:02:00,20.5,11.3,29.83,WSW,250,7.0,7.0,67,0.00,,---,0.00,VWS V14.01,2013-01-22 05:02:00,
2013-01-22 00:04:00,20.6,10.7,29.83,WNW,286,5.0,12.0,65,0.00,,---,0.00,VWS V14.01,2013-01-22 05:04:00,
2013-01-22 00:09:00,20.6,11.1,29.83,WNW,295,7.0,12.0,66,0.00,,---,0.00,VWS V14.01,2013-01-22 05:09:00,
2013-01-22 00:14:00,20.5,10.6,29.83,West,270,2.0,12.0,65,0.00,,---,0.00,VWS V14.01,2013-01-22 05:14:00,
2013-01-22 00:19:00,20.4,10.2,29.83,NW,307,4.0,12.0,64,0.00,,---,0.00,VWS V14.01,2013-01-22 05:19:00,
2013-01-22 00:24:00,20.3,10.1,29.83,West,259,10.0,12.0,64,0.00,,---,0.00,VWS V14.01,2013-01-22 05:24:00,
2013-01-22 00:29:00,20.2,10.0,29.83,West,266,1.0,13.0,64,0.00,,---,0.00,VWS V14.01,2013-01-22 05:29:00,
2013-01-22 00:30:00,19.0,8.1,29.84,WNW,286,4.0,11.0,62,0.00,,---,0.00,VWS V14.01,2013-01-22 05:30:00,
2013-01-22 00:34:00,20.0,9.8,29.84,WNW,295,3.0,9.0,64,0.00,,---,0.00,VWS V14.01,2013-01-22 05:34:00,
2013-01-22 00:39:00,19.8,9.6,29.83,West,277,3.0,9.0,64,0.00,,---,0.00,VWS V14.01,2013-01-22 05:39:00,
2013-01-22 00:44:00,19.7,9.5,29.83,West,265,9.0,13.0,64,0.00,,---,0.00,VWS V14.01,2013-01-22 05:44:00,
2013-01-22 00:49:00,19.7,9.5,29.83,WSW,254,4.0,13.0,64,0.00,,---,0.00,VWS V14.01,2013-01-22 05:49:00,
2013-01-22 00:54:00,19.7,9.2,29.83,NNW,342,4.0,13.0,63,0.00,,---,0.00,VWS V14.01,2013-01-22 05:54:00,
2013-01-22 00:59:00,19.6,9.4,29.84,WSW,247,5.0,13.0,64,0.00,,---,0.00,VWS V14.01,2013-01-22 05:59:00,
2013-01-22 01:00:00,18.2,7.0,29.86,WSW,246,4.0,15.0,61,0.00,,---,0.00,VWS V14.01,2013-01-22 06:00:00,
2013-01-22 01:04:00,19.5,9.0,29.84,NW,321,4.0,11.0,63,0.00,,---,0.00,VWS V14.01,2013-01-22 06:04:00,
2013-01-22 01:10:00,19.5,9.0,29.84,WSW,250,4.0,11.0,63,0.00,,---,0.00,VWS V14.01,2013-01-22 06:10:00,
2013-01-22 01:15:00,19.3,8.8,29.84,NW,319,3.0,11.0,63,0.00,,---,0.00,VWS V14.01,2013-01-22 06:15:00,
2013-01-22 01:20:00,19.2,8.7,29.84,West,274,2.0,11.0,63,0.00,,---,0.00,VWS V14.01,2013-01-22 06:20:00,
2013-01-22 01:25:00,19.1,8.6,29.85,WSW,254,4.0,11.0,63,0.00,,---,0.00,VWS V14.01,2013-01-22 06:25:00,
2013-01-22 01:30:00,19.0,8.1,29.84,WNW,286,4.0,11.0,62,0.00,,---,0.00,VWS V14.01,2013-01-22 06:30:00,
2013-01-22 01:35:00,18.9,7.3,29.85,NW,323,9.0,13.0,60,0.00,,---,0.00,VWS V14.01,2013-01-22 06:35:00,
2013-01-22 01:40:00,18.7,6.4,29.85,WNW,303,2.0,15.0,58,0.00,,---,0.00,VWS V14.01,2013-01-22 06:40:00,
2013-01-22 01:45:00,18.6,6.3,29.85,NW,317,6.0,15.0,58,0.00,,---,0.00,VWS V14.01,2013-01-22 06:45:00,
2013-01-22 01:50:00,18.5,6.2,29.86,NW,321,1.0,15.0,58,0.00,,---,0.00,VWS V14.01,2013-01-22 06:50:00,
2013-01-22 01:55:00,18.3,6.4,29.86,West,277,6.0,15.0,59,0.00,,---,0.00,VWS V14.01,2013-01-22 06:55:00,
2013-01-22 02:00:00,18.2,7.0,29.86,NW,313,2.0,5.0,61,0.00,,---,0.00,VWS V14.01,2013-01-22 07:00:00,
2013-01-22 02:05:00,18.0,6.8,29.86,WNW,294,4.0,9.0,61,0.00,,---,0.00,VWS V14.01,2013-01-22 07:05:00,
2013-01-22 02:10:00,17.9,6.7,29.86,WNW,286,3.0,9.0,61,0.00,,---,0.00,VWS V14.01,2013-01-22 07:10:00,
2013-01-22 02:15:00,17.7,6.6,29.86,WSW,253,2.0,9.0,61,0.00,,---,0.00,VWS V14.01,2013-01-22 07:15:00,
2013-01-22 02:20:00,17.6,6.4,29.87,WNW,283,2.0,9.0,61,0.00,,---,0.00,VWS V14.01,2013-01-22 07:20:00,
2013-01-22 02:25:00,17.4,6.6,29.87,WNW,287,0.0,11.0,62,0.00,,---,0.00,VWS V14.01,2013-01-22 07:25:00,
2013-01-22 02:30:00,15.8,5.4,29.89,NW,305,2.0,9.0,63,0.00,,---,0.00,VWS V14.01,2013-01-22 07:30:00,
2013-01-22 02:31:00,17.3,6.5,29.87,SW,226,7.0,10.0,62,0.00,,---,0.00,VWS V14.01,2013-01-22 07:31:00,
2013-01-22 02:36:00,17.2,6.4,29.87,WNW,290,3.0,10.0,62,0.00,,---,0.00,VWS V14.01,2013-01-22 07:36:00,
2013-01-22 02:41:00,17.0,6.2,29.87,NW,318,3.0,10.0,62,0.00,,---,0.00,VWS V14.01,2013-01-22 07:41:00,
2013-01-22 02:46:00,16.8,6.4,29.87,WNW,287,3.0,11.0,63,0.00,,---,0.00,VWS V14.01,2013-01-22 07:46:00,
2013-01-22 02:51:00,16.7,6.3,29.87,NW,315,6.0,12.0,63,0.00,,---,0.00,VWS V14.01,2013-01-22 07:51:00,
2013-01-22 02:56:00,16.7,6.7,29.87,NW,320,3.0,12.0,64,0.00,,---,0.00,VWS V14.01,2013-01-22 07:56:00,
2013-01-22 03:00:00,15.3,5.3,29.89,West,275,5.0,13.0,64,0.00,,---,0.00,VWS V14.01,2013-01-22 08:00:00,
2013-01-22 03:01:00,16.5,6.5,29.87,WNW,294,5.0,6.0,64,0.00,,---,0.00,VWS V14.01,2013-01-22 08:01:00,
2013-01-22 03:06:00,16.4,6.4,29.88,WNW,298,3.0,9.0,64,0.00,,---,0.00,VWS V14.01,2013-01-22 08:06:00,
2013-01-22 03:11:00,16.3,6.3,29.88,West,270,3.0,9.0,64,0.00,,---,0.00,VWS V14.01,2013-01-22 08:11:00,
2013-01-22 03:17:00,16.2,6.2,29.88,WNW,286,2.0,9.0,64,0.00,,---,0.00,VWS V14.01,2013-01-22 08:17:00,
2013-01-22 03:22:00,16.0,6.0,29.88,West,268,6.0,9.0,64,0.00,,---,0.00,VWS V14.01,2013-01-22 08:22:00,
2013-01-22 03:27:00,15.9,5.6,29.88,NW,310,2.0,9.0,63,0.00,,---,0.00,VWS V14.01,2013-01-22 08:27:00,
2013-01-22 03:30:00,14.7,5.4,29.91,West,275,3.0,12.0,66,0.00,,---,0.00,VWS V14.01,2013-01-22 08:30:00,
2013-01-22 03:32:00,15.8,5.4,29.89,NW,305,3.0,5.0,63,0.00,,---,0.00,VWS V14.01,2013-01-22 08:32:00,
2013-01-22 03:37:00,15.7,5.4,29.89,WSW,240,6.0,7.0,63,0.00,,---,0.00,VWS V14.01,2013-01-22 08:37:00,
2013-01-22 03:42:00,15.6,5.3,29.89,WNW,301,4.0,7.0,63,0.00,,---,0.00,VWS V14.01,2013-01-22 08:42:00,
2013-01-22 03:47:00,15.5,5.5,29.89,WNW,284,2.0,7.0,64,0.00,,---,0.00,VWS V14.01,2013-01-22 08:47:00,
2013-01-22 03:52:00,15.4,5.8,29.89,WNW,294,2.0,7.0,65,0.00,,---,0.00,VWS V14.01,2013-01-22 08:52:00,
2013-01-22 03:57:00,15.3,5.3,29.89,West,261,7.0,13.0,64,0.00,,---,0.00,VWS V14.01,2013-01-22 08:57:00,
2013-01-22 04:00:00,14.3,5.7,29.92,WNW,299,1.0,11.0,68,0.00,,---,0.00,VWS V14.01,2013-01-22 09:00:00,
2013-01-22 04:02:00,15.2,5.6,29.90,West,273,5.0,5.0,65,0.00,,---,0.00,VWS V14.01,2013-01-22 09:02:00,
2013-01-22 04:07:00,15.2,5.9,29.90,WNW,292,3.0,12.0,66,0.00,,---,0.00,VWS V14.01,2013-01-22 09:07:00,
2013-01-22 04:12:00,15.1,5.8,29.90,West,267,1.0,12.0,66,0.00,,---,0.00,VWS V14.01,2013-01-22 09:12:00,
2013-01-22 04:17:00,15.0,5.7,29.90,WNW,297,1.0,12.0,66,0.00,,---,0.00,VWS V14.01,2013-01-22 09:17:00,
2013-01-22 04:22:00,14.8,5.5,29.90,NW,317,3.0,12.0,66,0.00,,---,0.00,VWS V14.01,2013-01-22 09:22:00,
2013-01-22 04:27:00,14.8,5.5,29.91,WNW,302,1.0,12.0,66,0.00,,---,0.00,VWS V14.01,2013-01-22 09:27:00,
2013-01-22 04:30:00,13.8,5.2,29.94,WSW,247,2.0,7.0,68,0.00,,---,0.00,VWS V14.01,2013-01-22 09:30:00,
2013-01-22 04:32:00,14.7,5.8,29.91,NNW,327,2.0,4.0,67,0.00,,---,0.00,VWS V14.01,2013-01-22 09:32:00,
2013-01-22 04:37:00,14.6,5.7,29.91,West,275,1.0,7.0,67,0.00,,---,0.00,VWS V14.01,2013-01-22 09:37:00,
2013-01-22 04:42:00,14.5,5.6,29.91,West,281,1.0,7.0,67,0.00,,---,0.00,VWS V14.01,2013-01-22 09:42:00,
2013-01-22 04:47:00,14.4,5.8,29.92,West,260,0.0,7.0,68,0.00,,---,0.00,VWS V14.01,2013-01-22 09:47:00,
2013-01-22 04:53:00,14.3,5.4,29.92,NW,308,4.0,11.0,67,0.00,,---,0.00,VWS V14.01,2013-01-22 09:53:00,
2013-01-22 04:58:00,14.3,5.4,29.92,WNW,291,1.0,11.0,67,0.00,,---,0.00,VWS V14.01,2013-01-22 09:58:00,
2013-01-22 05:00:00,13.4,5.1,29.95,West,266,5.0,7.0,69,0.00,,---,0.00,VWS V14.01,2013-01-22 10:00:00,
2013-01-22 05:03:00,14.3,5.7,29.92,West,280,3.0,6.0,68,0.00,,---,0.00,VWS V14.01,2013-01-22 10:03:00,
2013-01-22 05:08:00,14.1,5.5,29.93,WNW,302,2.0,6.0,68,0.00,,---,0.00,VWS V14.01,2013-01-22 10:08:00,
2013-01-22 05:13:00,14.1,5.5,29.93,West,266,2.0,7.0,68,0.00,,---,0.00,VWS V14.01,2013-01-22 10:13:00,
2013-01-22 05:18:00,14.0,5.4,29.94,WSW,247,3.0,7.0,68,0.00,,---,0.00,VWS V14.01,2013-01-22 10:18:00,
2013-01-22 05:23:00,14.0,5.4,29.94,NW,319,1.0,7.0,68,0.00,,---,0.00,VWS V14.01,2013-01-22 10:23:00,
2013-01-22 05:28:00,13.8,5.5,29.94,West,269,0.0,7.0,69,0.00,,---,0.00,VWS V14.01,2013-01-22 10:28:00,
2013-01-22 05:30:00,13.0,4.8,29.97,WNW,300,3.0,7.0,69,0.00,,---,0.00,VWS V14.01,2013-01-22 10:30:00,
2013-01-22 05:33:00,13.8,5.5,29.94,NW,308,1.0,5.0,69,0.00,,---,0.00,VWS V14.01,2013-01-22 10:33:00,
2013-01-22 05:39:00,13.7,5.1,29.94,West,279,5.0,5.0,68,0.00,,---,0.00,VWS V14.01,2013-01-22 10:39:00,
2013-01-22 05:44:00,13.7,5.1,29.95,West,264,1.0,6.0,68,0.00,,---,0.00,VWS V14.01,2013-01-22 10:44:00,
2013-01-22 05:49:00,13.6,5.3,29.95,WNW,293,2.0,6.0,69,0.00,,---,0.00,VWS V14.01,2013-01-22 10:49:00,
2013-01-22 05:54:00,13.5,4.9,29.94,West,262,4.0,7.0,68,0.00,,---,0.00,VWS V14.01,2013-01-22 10:54:00,
2013-01-22 05:59:00,13.5,5.2,29.95,NW,305,0.0,7.0,69,0.00,,---,0.00,VWS V14.01,2013-01-22 10:59:00,
2013-01-22 06:00:00,12.6,4.4,29.98,WNW,300,4.0,7.0,69,0.00,,---,0.00,VWS V14.01,2013-01-22 11:00:00,
2013-01-22 06:04:00,13.4,5.1,29.95,West,264,1.0,5.0,69,0.00,,---,0.00,VWS V14.01,2013-01-22 11:04:00,
2013-01-22 06:09:00,13.3,5.1,29.96,WNW,300,4.0,7.0,69,0.00,,---,0.00,VWS V14.01,2013-01-22 11:09:00,
2013-01-22 06:14:00,13.2,4.9,29.96,WSW,250,1.0,7.0,69,0.00,,---,0.00,VWS V14.01,2013-01-22 11:14:00,
2013-01-22 06:19:00,13.2,4.9,29.96,West,264,0.0,7.0,69,0.00,,---,0.00,VWS V14.01,2013-01-22 11:19:00,
2013-01-22 06:24:00,13.0,4.8,29.96,West,262,3.0,7.0,69,0.00,,---,0.00,VWS V14.01,2013-01-22 11:24:00,
2013-01-22 06:29:00,13.0,4.8,29.97,NNW,327,5.0,7.0,69,0.00,,---,0.00,VWS V14.01,2013-01-22 11:29:00,
2013-01-22 06:30:00,12.2,4.3,30.00,West,267,2.0,6.0,70,0.00,,---,0.00,VWS V14.01,2013-01-22 11:30:00,
2013-01-22 06:34:00,12.9,4.7,29.97,WNW,300,2.0,5.0,69,0.00,,---,0.00,VWS V14.01,2013-01-22 11:34:00,
2013-01-22 06:40:00,12.8,4.6,29.97,WNW,290,2.0,7.0,69,0.00,,---,0.00,VWS V14.01,2013-01-22 11:40:00,
2013-01-22 06:45:00,12.8,4.6,29.97,West,275,2.0,7.0,69,0.00,,---,0.00,VWS V14.01,2013-01-22 11:45:00,
2013-01-22 06:50:00,12.7,4.5,29.98,NW,325,4.0,7.0,69,0.00,,---,0.00,VWS V14.01,2013-01-22 11:50:00,
2013-01-22 06:55:00,12.6,4.4,29.98,West,274,0.0,7.0,69,0.00,,---,0.00,VWS V14.01,2013-01-22 11:55:00,
2013-01-22 07:00:00,12.6,4.4,29.99,WNW,300,0.0,2.0,69,0.00,,---,0.00,VWS V14.01,2013-01-22 12:00:00,
2013-01-22 07:05:00,12.5,4.3,29.98,WNW,287,2.0,6.0,69,0.00,,---,0.00,VWS V14.01,2013-01-22 12:05:00,
2013-01-22 07:10:00,12.4,4.2,29.98,SW,223,3.0,6.0,69,0.00,,---,0.00,VWS V14.01,2013-01-22 12:10:00,
2013-01-22 07:16:00,12.3,4.1,29.99,West,279,2.0,6.0,69,0.00,,---,0.00,VWS V14.01,2013-01-22 12:16:00,
2013-01-22 07:21:00,12.3,4.4,29.99,NW,311,3.0,6.0,70,0.00,,---,0.00,VWS V14.01,2013-01-22 12:21:00,
2013-01-22 07:26:00,12.3,4.4,29.99,NW,325,1.0,6.0,70,0.00,,---,0.00,VWS V14.01,2013-01-22 12:26:00,
2013-01-22 07:30:00,12.2,4.0,30.02,WNW,300,1.0,14.0,69,0.00,,---,0.00,VWS V14.01,2013-01-22 12:30:00,
2013-01-22 07:31:00,12.2,4.0,29.99,West,267,2.0,2.0,69,0.00,,---,0.00,VWS V14.01,2013-01-22 12:31:00,
2013-01-22 07:36:00,12.1,3.9,30.00,West,267,4.0,6.0,69,0.00,,---,0.00,VWS V14.01,2013-01-22 12:36:00,
2013-01-22 07:41:00,12.1,4.2,30.00,West,272,1.0,6.0,70,0.00,,---,0.00,VWS V14.01,2013-01-22 12:41:00,
2013-01-22 07:46:00,12.1,4.2,30.00,WNW,293,1.0,6.0,70,0.00,,---,0.00,VWS V14.01,2013-01-22 12:46:00,
2013-01-22 07:51:00,12.0,4.1,30.01,WSW,257,4.0,6.0,70,0.00,,---,0.00,VWS V14.01,2013-01-22 12:51:00,
2013-01-22 07:57:00,12.0,4.1,30.01,NW,310,3.0,9.0,70,0.00,,---,0.00,VWS V14.01,2013-01-22 12:57:00,
2013-01-22 08:00:00,12.3,4.1,30.04,West,270,5.0,11.0,69,0.00,,---,0.00,VWS V14.01,2013-01-22 13:00:00,
2013-01-22 08:02:00,12.0,4.1,30.01,West,272,7.0,7.0,70,0.00,,---,0.00,VWS V14.01,2013-01-22 13:02:00,
2013-01-22 08:07:00,12.0,4.1,30.02,NW,311,3.0,7.0,70,0.00,,---,0.00,VWS V14.01,2013-01-22 13:07:00,
2013-01-22 08:13:00,12.1,4.2,30.02,West,281,3.0,7.0,70,0.00,,---,0.00,VWS V14.01,2013-01-22 13:13:00,
2013-01-22 08:18:00,12.1,4.2,30.02,WSW,240,5.0,7.0,70,0.00,,---,0.00,VWS V14.01,2013-01-22 13:18:00,
2013-01-22 08:23:00,12.1,3.9,30.02,NW,312,4.0,14.0,69,0.00,,---,0.00,VWS V14.01,2013-01-22 13:23:00,
2013-01-22 08:28:00,12.2,4.0,30.02,NNW,336,6.0,14.0,69,0.00,,---,0.00,VWS V14.01,2013-01-22 13:28:00,
2013-01-22 08:30:00,12.8,3.9,30.04,WSW,258,7.0,14.0,67,0.00,,---,0.00,VWS V14.01,2013-01-22 13:30:00,
2013-01-22 08:33:00,12.2,4.0,30.02,WNW,293,3.0,7.0,69,0.00,,---,0.00,VWS V14.01,2013-01-22 13:33:00,
2013-01-22 08:38:00,12.3,4.1,30.03,WSW,256,5.0,7.0,69,0.00,,---,0.00,VWS V14.01,2013-01-22 13:38:00,
2013-01-22 08:43:00,12.2,4.0,30.03,WNW,300,2.0,11.0,69,0.00,,---,0.00,VWS V14.01,2013-01-22 13:43:00,
2013-01-22 08:48:00,12.3,4.1,30.03,West,267,5.0,11.0,69,0.00,,---,0.00,VWS V14.01,2013-01-22 13:48:00,
2013-01-22 08:53:00,12.4,4.2,30.04,West,271,2.0,11.0,69,0.00,,---,0.00,VWS V14.01,2013-01-22 13:53:00,
2013-01-22 08:58:00,12.3,4.1,30.04,WNW,293,1.0,11.0,69,0.00,,---,0.00,VWS V14.01,2013-01-22 13:58:00,
2013-01-22 09:00:00,13.3,1.3,30.05,NW,323,3.0,14.0,58,0.00,,---,0.00,VWS V14.01,2013-01-22 14:00:00,
2013-01-22 09:03:00,12.5,4.3,30.04,WNW,299,3.0,7.0,69,0.00,,---,0.00,VWS V14.01,2013-01-22 14:03:00,
2013-01-22 09:08:00,12.6,4.4,30.04,WSW,249,1.0,7.0,69,0.00,,---,0.00,VWS V14.01,2013-01-22 14:08:00,
2013-01-22 09:13:00,12.7,3.8,30.05,WNW,285,3.0,11.0,67,0.00,,---,0.00,VWS V14.01,2013-01-22 14:13:00,
2013-01-22 09:19:00,12.4,3.5,30.04,WNW,297,1.0,14.0,67,0.00,,---,0.00,VWS V14.01,2013-01-22 14:19:00,
2013-01-22 09:24:00,12.6,4.1,30.05,NW,311,3.0,14.0,68,0.00,,---,0.00,VWS V14.01,2013-01-22 14:24:00,
2013-01-22 09:29:00,12.8,3.9,30.05,WNW,301,3.0,14.0,67,0.00,,---,0.00,VWS V14.01,2013-01-22 14:29:00,
2013-01-22 09:30:00,13.5,1.5,30.06,West,271,4.0,15.0,58,0.00,,---,0.00,VWS V14.01,2013-01-22 14:30:00,
2013-01-22 09:34:00,12.8,3.6,30.04,West,268,3.0,10.0,66,0.00,,---,0.00,VWS V14.01,2013-01-22 14:34:00,
2013-01-22 09:39:00,13.1,3.6,30.04,WNW,302,2.0,11.0,65,0.00,,---,0.00,VWS V14.01,2013-01-22 14:39:00,
2013-01-22 09:44:00,13.5,3.3,30.04,NNW,336,14.0,14.0,63,0.00,,---,0.00,VWS V14.01,2013-01-22 14:44:00,
2013-01-22 09:49:00,13.6,3.0,30.05,West,276,4.0,14.0,62,0.00,,---,0.00,VWS V14.01,2013-01-22 14:49:00,
2013-01-22 09:54:00,13.7,2.8,30.05,NW,306,6.0,14.0,61,0.00,,---,0.00,VWS V14.01,2013-01-22 14:54:00,
2013-01-22 09:59:00,13.4,1.4,30.05,NW,325,7.0,14.0,58,0.00,,---,0.00,VWS V14.01,2013-01-22 14:59:00,
2013-01-22 10:00:00,13.3,0.9,30.06,WSW,240,7.0,18.0,57,0.00,,---,0.00,VWS V14.01,2013-01-22 15:00:00,
2013-01-22 10:04:00,13.1,1.1,30.06,West,261,12.0,12.0,58,0.00,,---,0.00,VWS V14.01,2013-01-22 15:04:00,
2013-01-22 10:09:00,13.1,1.1,30.05,WSW,243,5.0,12.0,58,0.00,,---,0.00,VWS V14.01,2013-01-22 15:09:00,
2013-01-22 10:14:00,13.3,1.3,30.06,WNW,286,3.0,15.0,58,0.00,,---,0.00,VWS V14.01,2013-01-22 15:14:00,
2013-01-22 10:20:00,13.4,1.4,30.06,West,277,4.0,15.0,58,0.00,,---,0.00,VWS V14.01,2013-01-22 15:20:00,
2013-01-22 10:25:00,13.4,2.1,30.06,NW,309,2.0,15.0,60,0.00,,---,0.00,VWS V14.01,2013-01-22 15:25:00,
2013-01-22 10:30:00,13.5,1.5,30.06,WSW,242,5.0,15.0,58,0.00,,---,0.00,VWS V14.01,2013-01-22 15:30:00,
2013-01-22 10:35:00,13.3,0.9,30.06,SW,226,6.0,15.0,57,0.00,,---,0.00,VWS V14.01,2013-01-22 15:35:00,
2013-01-22 10:40:00,13.0,0.3,30.06,NW,314,3.0,15.0,56,0.00,,---,0.00,VWS V14.01,2013-01-22 15:40:00,
2013-01-22 10:45:00,13.4,0.6,30.06,West,262,4.0,18.0,56,0.00,,---,0.00,VWS V14.01,2013-01-22 15:45:00,
2013-01-22 10:50:00,13.6,0.8,30.06,West,264,4.0,18.0,56,0.00,,---,0.00,VWS V14.01,2013-01-22 15:50:00,
2013-01-22 10:55:00,13.4,0.6,30.06,West,271,5.0,18.0,56,0.00,,---,0.00,VWS V14.01,2013-01-22 15:55:00,
2013-01-22 11:00:00,13.4,1.0,30.06,West,277,2.0,6.0,57,0.00,,---,0.00,VWS V14.01,2013-01-22 16:00:00,
2013-01-22 11:05:00,13.4,1.4,30.06,WNW,296,10.0,12.0,58,0.00,,---,0.00,VWS V14.01,2013-01-22 16:05:00,
2013-01-22 11:11:00,12.8,2.2,30.06,WNW,292,5.0,14.0,62,0.00,,---,0.00,VWS V14.01,2013-01-22 16:11:00,
2013-01-22 11:16:00,13.0,2.1,30.06,West,268,5.0,14.0,61,0.00,,---,0.00,VWS V14.01,2013-01-22 16:16:00,
2013-01-22 11:21:00,13.2,0.8,30.05,West,273,5.0,14.0,57,0.00,,---,0.00,VWS V14.01,2013-01-22 16:21:00,
2013-01-22 11:26:00,13.6,1.2,30.05,NW,319,10.0,14.0,57,0.00,,---,0.00,VWS V14.01,2013-01-22 16:26:00,
2013-01-22 11:30:00,14.5,-0.7,30.03,WNW,302,11.0,14.0,50,0.00,,---,0.00,VWS V14.01,2013-01-22 16:30:00,
2013-01-22 11:31:00,13.9,0.7,30.05,WSW,245,3.0,5.0,55,0.00,,---,0.00,VWS V14.01,2013-01-22 16:31:00,
2013-01-22 11:36:00,14.1,0.5,30.05,NNW,333,12.0,12.0,54,0.00,,---,0.00,VWS V14.01,2013-01-22 16:36:00,
2013-01-22 11:41:00,13.7,-0.2,30.05,NW,311,4.0,16.0,53,0.00,,---,0.00,VWS V14.01,2013-01-22 16:41:00,
2013-01-22 11:46:00,13.9,-0.5,30.05,NW,317,5.0,16.0,52,0.00,,---,0.00,VWS V14.01,2013-01-22 16:46:00,
2013-01-22 11:51:00,14.3,0.7,30.05,NW,307,9.0,16.0,54,0.00,,---,0.00,VWS V14.01,2013-01-22 16:51:00,
2013-01-22 11:57:00,13.9,-0.1,30.05,NW,308,2.0,16.0,53,0.00,,---,0.00,VWS V14.01,2013-01-22 16:57:00,
2013-01-22 12:00:00,13.9,-1.7,30.03,NNW,330,5.0,16.0,49,0.00,,---,0.00,VWS V14.01,2013-01-22 17:00:00,
2013-01-22 12:02:00,14.3,0.7,30.04,NW,311,4.0,6.0,54,0.00,,---,0.00,VWS V14.01,2013-01-22 17:02:00,
2013-01-22 12:07:00,14.7,0.3,30.04,WNW,298,3.0,10.0,52,0.00,,---,0.00,VWS V14.01,2013-01-22 17:07:00,
2013-01-22 12:12:00,15.2,1.5,30.04,WNW,296,2.0,10.0,54,0.00,,---,0.00,VWS V14.01,2013-01-22 17:12:00,
2013-01-22 12:17:00,14.9,-0.8,30.03,NNW,346,5.0,14.0,49,0.00,,---,0.00,VWS V14.01,2013-01-22 17:17:00,
2013-01-22 12:22:00,14.8,-0.5,30.03,West,273,6.0,14.0,50,0.00,,---,0.00,VWS V14.01,2013-01-22 17:22:00,
2013-01-22 12:27:00,14.6,-0.6,30.03,West,273,3.0,14.0,50,0.00,,---,0.00,VWS V14.01,2013-01-22 17:27:00,
2013-01-22 12:30:00,14.4,-0.4,30.03,WSW,250,4.0,14.0,51,0.00,,---,0.00,VWS V14.01,2013-01-22 17:30:00,
2013-01-22 12:32:00,14.5,-0.3,30.03,NW,322,6.0,12.0,51,0.00,,---,0.00,VWS V14.01,2013-01-22 17:32:00,
2013-01-22 12:38:00,14.3,-0.5,30.03,NW,322,3.0,14.0,51,0.00,,---,0.00,VWS V14.01,2013-01-22 17:38:00,
2013-01-22 12:43:00,13.9,-1.3,30.03,West,275,4.0,16.0,50,0.00,,---,0.00,VWS V14.01,2013-01-22 17:43:00,
2013-01-22 12:48:00,13.8,-1.0,30.03,West,278,5.0,16.0,51,0.00,,---,0.00,VWS V14.01,2013-01-22 17:48:00,
2013-01-22 12:53:00,13.6,-1.6,30.03,NW,314,4.0,16.0,50,0.00,,---,0.00,VWS V14.01,2013-01-22 17:53:00,
2013-01-22 12:58:00,14.0,-0.8,30.03,West,263,11.0,16.0,51,0.00,,---,0.00,VWS V14.01,2013-01-22 17:58:00,
2013-01-22 13:00:00,14.2,-0.2,30.03,WSW,258,5.0,15.0,52,0.00,,---,0.00,VWS V14.01,2013-01-22 18:00:00,
2013-01-22 13:03:00,13.7,-1.5,30.03,NW,312,4.0,12.0,50,0.00,,---,0.00,VWS V14.01,2013-01-22 18:03:00,
2013-01-22 13:08:00,14.0,-1.2,30.03,WNW,284,3.0,12.0,50,0.00,,---,0.00,VWS V14.01,2013-01-22 18:08:00,
2013-01-22 13:13:00,14.2,-0.6,30.03,WSW,249,14.0,14.0,51,0.00,,---,0.00,VWS V14.01,2013-01-22 18:13:00,
2013-01-22 13:18:00,14.2,-0.6,30.03,WNW,295,3.0,14.0,51,0.00,,---,0.00,VWS V14.01,2013-01-22 18:18:00,
2013-01-22 13:23:00,14.3,-0.9,30.03,NNW,330,3.0,14.0,50,0.00,,---,0.00,VWS V14.01,2013-01-22 18:23:00,
2013-01-22 13:28:00,14.5,-0.3,30.03,NNW,345,9.0,14.0,51,0.00,,---,0.00,VWS V14.01,2013-01-22 18:28:00,
2013-01-22 13:30:00,14.2,-1.0,30.04,WNW,296,3.0,16.0,50,0.00,,---,0.00,VWS V14.01,2013-01-22 18:30:00,
2013-01-22 13:33:00,14.3,-0.5,30.03,West,267,5.0,12.0,51,0.00,,---,0.00,VWS V14.01,2013-01-22 18:33:00,
2013-01-22 13:39:00,14.0,-1.6,30.03,NNW,331,5.0,12.0,49,0.00,,---,0.00,VWS V14.01,2013-01-22 18:39:00,
2013-01-22 13:44:00,14.4,-0.4,30.03,WNW,302,3.0,12.0,51,0.00,,---,0.00,VWS V14.01,2013-01-22 18:44:00,
2013-01-22 13:49:00,14.3,-0.5,30.03,North,5,5.0,12.0,51,0.00,,---,0.00,VWS V14.01,2013-01-22 18:49:00,
2013-01-22 13:54:00,14.3,-0.1,30.03,West,275,7.0,13.0,52,0.00,,---,0.00,VWS V14.01,2013-01-22 18:54:00,
2013-01-22 13:59:00,14.2,-0.2,30.03,NW,307,5.0,15.0,52,0.00,,---,0.00,VWS V14.01,2013-01-22 18:59:00,
2013-01-22 14:00:00,14.9,-0.4,30.04,West,271,5.0,17.0,50,0.00,,---,0.00,VWS V14.01,2013-01-22 19:00:00,
2013-01-22 14:04:00,14.2,-0.2,30.04,NW,321,6.0,13.0,52,0.00,,---,0.00,VWS V14.01,2013-01-22 19:04:00,
2013-01-22 14:09:00,13.8,-0.6,30.03,NW,318,5.0,13.0,52,0.00,,---,0.00,VWS V14.01,2013-01-22 19:09:00,
2013-01-22 14:14:00,13.9,-0.5,30.04,West,271,5.0,16.0,52,0.00,,---,0.00,VWS V14.01,2013-01-22 19:14:00,
2013-01-22 14:19:00,14.3,-0.5,30.04,NNW,333,2.0,16.0,51,0.00,,---,0.00,VWS V14.01,2013-01-22 19:19:00,
2013-01-22 14:24:00,14.3,-0.9,30.04,West,280,4.0,16.0,50,0.00,,---,0.00,VWS V14.01,2013-01-22 19:24:00,
2013-01-22 14:30:00,14.2,-1.0,30.04,WNW,284,3.0,16.0,50,0.00,,---,0.00,VWS V14.01,2013-01-22 19:30:00,
2013-01-22 14:35:00,14.2,-1.0,30.04,West,279,1.0,8.0,50,0.00,,---,0.00,VWS V14.01,2013-01-22 19:35:00,
2013-01-22 14:40:00,14.5,-0.3,30.04,NNE,18,3.0,8.0,51,0.00,,---,0.00,VWS V14.01,2013-01-22 19:40:00,
2013-01-22 14:45:00,14.2,-1.0,30.04,WNW,283,2.0,17.0,50,0.00,,---,0.00,VWS V14.01,2013-01-22 19:45:00,
2013-01-22 14:50:00,14.3,-0.9,30.04,NNW,327,5.0,17.0,50,0.00,,---,0.00,VWS V14.01,2013-01-22 19:50:00,
2013-01-22 14:55:00,14.7,-0.6,30.04,WSW,255,5.0,17.0,50,0.00,,---,0.00,VWS V14.01,2013-01-22 19:55:00,
2013-01-22 15:00:00,14.9,-0.4,30.05,WNW,283,5.0,5.0,50,0.00,,---,0.00,VWS V14.01,2013-01-22 20:00:00,
2013-01-22 15:05:00,14.7,-1.0,30.05,WNW,285,3.0,7.0,49,0.00,,---,0.00,VWS V14.01,2013-01-22 20:05:00,
2013-01-22 15:10:00,14.5,-0.7,30.05,NNW,328,12.0,12.0,50,0.00,,---,0.00,VWS V14.01,2013-01-22 20:10:00,
2013-01-22 15:15:00,14.3,-0.9,30.05,NNW,333,2.0,13.0,50,0.00,,---,0.00,VWS V14.01,2013-01-22 20:15:00,
2013-01-22 15:20:00,14.6,-0.6,30.05,NW,309,3.0,13.0,50,0.00,,---,0.00,VWS V14.01,2013-01-22 20:20:00,
2013-01-22 15:25:00,14.3,-1.4,30.06,NW,307,5.0,13.0,49,0.00,,---,0.00,VWS V14.01,2013-01-22 20:25:00,
2013-01-22 15:30:00,13.9,-1.7,30.06,WNW,298,6.0,6.0,49,0.00,,---,0.00,VWS V14.01,2013-01-22 20:30:00,
2013-01-22 15:35:00,13.9,-1.3,30.07,WSW,257,2.0,10.0,50,0.00,,---,0.00,VWS V14.01,2013-01-22 20:35:00,
2013-01-22 15:40:00,14.1,-1.1,30.06,WNW,288,5.0,10.0,50,0.00,,---,0.00,VWS V14.01,2013-01-22 20:40:00,
2013-01-22 15:45:00,14.2,-1.0,30.06,NW,309,7.0,14.0,50,0.00,,---,0.00,VWS V14.01,2013-01-22 20:45:00,
2013-01-22 15:51:00,14.1,-1.1,30.07,West,277,6.0,14.0,50,0.00,,---,0.00,VWS V14.01,2013-01-22 20:51:00,
2013-01-22 15:56:00,13.9,-1.7,30.07,West,273,5.0,14.0,49,0.00,,---,0.00,VWS V14.01,2013-01-22 20:56:00,
2013-01-22 16:00:00,12.7,-2.0,30.10,WNW,290,2.0,12.0,51,0.00,,---,0.00,VWS V14.01,2013-01-22 21:00:00,
2013-01-22 16:01:00,13.4,-1.8,30.08,NW,311,3.0,5.0,50,0.00,,---,0.00,VWS V14.01,2013-01-22 21:01:00,
2013-01-22 16:06:00,13.2,-1.5,30.08,WNW,298,3.0,12.0,51,0.00,,---,0.00,VWS V14.01,2013-01-22 21:06:00,
2013-01-22 16:11:00,13.1,-1.2,30.08,West,269,4.0,12.0,52,0.00,,---,0.00,VWS V14.01,2013-01-22 21:11:00,
2013-01-22 16:16:00,13.1,-1.6,30.08,West,259,4.0,14.0,51,0.00,,---,0.00,VWS V14.01,2013-01-22 21:16:00,
2013-01-22 16:22:00,13.1,-1.2,30.08,NW,304,2.0,14.0,52,0.00,,---,0.00,VWS V14.01,2013-01-22 21:22:00,
2013-01-22 16:27:00,13.1,-1.2,30.08,NNW,331,4.0,14.0,52,0.00,,---,0.00,VWS V14.01,2013-01-22 21:27:00,
2013-01-22 16:30:00,12.2,-2.0,30.12,West,274,2.0,11.0,52,0.00,,---,0.00,VWS V14.01,2013-01-22 21:30:00,
2013-01-22 16:31:00,13.0,-2.1,30.08,WNW,299,4.0,10.0,50,0.00,,---,0.00,VWS V14.01,2013-01-22 21:31:00,
2013-01-22 16:36:00,12.9,-1.8,30.09,North,355,1.0,10.0,51,0.00,,---,0.00,VWS V14.01,2013-01-22 21:36:00,
2013-01-22 16:41:00,12.8,-1.5,30.09,North,349,5.0,12.0,52,0.00,,---,0.00,VWS V14.01,2013-01-22 21:41:00,
2013-01-22 16:46:00,12.8,-1.5,30.09,WNW,303,1.0,12.0,52,0.00,,---,0.00,VWS V14.01,2013-01-22 21:46:00,
2013-01-22 16:51:00,12.7,-2.0,30.09,WSW,245,7.0,12.0,51,0.00,,---,0.00,VWS V14.01,2013-01-22 21:51:00,
2013-01-22 16:56:00,12.7,-2.0,30.09,WNW,285,1.0,12.0,51,0.00,,---,0.00,VWS V14.01,2013-01-22 21:56:00,
2013-01-22 17:00:00,11.8,-1.6,30.13,West,265,4.0,11.0,54,0.00,,---,0.00,VWS V14.01,2013-01-22 22:00:00,
2013-01-22 17:02:00,12.6,-2.1,30.10,NNW,327,3.0,6.0,51,0.00,,---,0.00,VWS V14.01,2013-01-22 22:02:00,
2013-01-22 17:07:00,12.6,-2.1,30.10,NW,315,6.0,10.0,51,0.00,,---,0.00,VWS V14.01,2013-01-22 22:07:00,
2013-01-22 17:12:00,12.5,-2.2,30.10,WNW,289,1.0,10.0,51,0.00,,---,0.00,VWS V14.01,2013-01-22 22:12:00,
2013-01-22 17:17:00,12.4,-1.9,30.11,NW,321,4.0,10.0,52,0.00,,---,0.00,VWS V14.01,2013-01-22 22:17:00,
2013-01-22 17:22:00,12.3,-2.4,30.11,West,279,4.0,11.0,51,0.00,,---,0.00,VWS V14.01,2013-01-22 22:22:00,
2013-01-22 17:27:00,12.3,-2.0,30.12,NNW,327,4.0,11.0,52,0.00,,---,0.00,VWS V14.01,2013-01-22 22:27:00,
2013-01-22 17:30:00,11.2,-0.3,30.14,SW,231,2.0,9.0,59,0.00,,---,0.00,VWS V14.01,2013-01-22 22:30:00,
2013-01-22 17:32:00,12.2,-2.0,30.12,WNW,288,8.0,8.0,52,0.00,,---,0.00,VWS V14.01,2013-01-22 22:32:00,
2013-01-22 17:37:00,12.1,-2.1,30.12,WSW,257,2.0,8.0,52,0.00,,---,0.00,VWS V14.01,2013-01-22 22:37:00,
2013-01-22 17:42:00,12.0,-1.8,30.12,SW,223,2.0,10.0,53,0.00,,---,0.00,VWS V14.01,2013-01-22 22:42:00,
2013-01-22 17:47:00,11.9,-2.3,30.12,West,277,1.0,10.0,52,0.00,,---,0.00,VWS V14.01,2013-01-22 22:47:00,
2013-01-22 17:52:00,11.9,-1.9,30.13,North,350,2.0,10.0,53,0.00,,---,0.00,VWS V14.01,2013-01-22 22:52:00,
2013-01-22 17:57:00,11.8,-1.6,30.13,NW,321,7.0,11.0,54,0.00,,---,0.00,VWS V14.01,2013-01-22 22:57:00,
2013-01-22 18:00:00,10.8,-0.3,30.15,West,266,4.0,6.0,60,0.00,,---,0.00,VWS V14.01,2013-01-22 23:00:00,
2013-01-22 18:03:00,11.7,-1.3,30.13,West,271,1.0,5.0,55,0.00,,---,0.00,VWS V14.01,2013-01-22 23:03:00,
2013-01-22 18:08:00,11.6,-1.0,30.13,WNW,298,3.0,5.0,56,0.00,,---,0.00,VWS V14.01,2013-01-22 23:08:00,
2013-01-22 18:13:00,11.5,-0.8,30.13,NW,306,0.0,6.0,57,0.00,,---,0.00,VWS V14.01,2013-01-22 23:13:00,
2013-01-22 18:18:00,11.4,-0.5,30.14,North,355,1.0,9.0,58,0.00,,---,0.00,VWS V14.01,2013-01-22 23:18:00,
2013-01-22 18:23:00,11.3,-0.2,30.14,WNW,284,1.0,9.0,59,0.00,,---,0.00,VWS V14.01,2013-01-22 23:23:00,
2013-01-22 18:28:00,11.2,-0.7,30.14,West,270,0.0,9.0,58,0.00,,---,0.00,VWS V14.01,2013-01-22 23:28:00,
2013-01-22 18:30:00,10.6,-0.2,30.16,WSW,257,3.0,10.0,61,0.00,,---,0.00,VWS V14.01,2013-01-22 23:30:00,
2013-01-22 18:33:00,11.2,-0.7,30.14,West,267,2.0,6.0,58,0.00,,---,0.00,VWS V14.01,2013-01-22 23:33:00,
2013-01-22 18:38:00,11.1,-0.4,30.14,WSW,254,3.0,6.0,59,0.00,,---,0.00,VWS V14.01,2013-01-22 23:38:00,
2013-01-22 18:43:00,11.0,-0.9,30.15,WNW,300,4.0,6.0,58,0.00,,---,0.00,VWS V14.01,2013-01-22 23:43:00,
2013-01-22 18:49:00,11.0,-0.9,30.15,WNW,296,3.0,6.0,58,0.00,,---,0.00,VWS V14.01,2013-01-22 23:49:00,
2013-01-22 18:54:00,10.9,-0.6,30.15,NW,324,3.0,6.0,59,0.00,,---,0.00,VWS V14.01,2013-01-22 23:54:00,
2013-01-22 18:59:00,10.9,-0.6,30.15,West,267,5.0,6.0,59,0.00,,---,0.00,VWS V14.01,2013-01-22 23:59:00,
2013-01-22 19:00:00,10.3,-0.1,30.17,West,279,3.0,13.0,62,0.00,,---,0.00,VWS V14.01,2013-01-23 00:00:00,
2013-01-22 19:04:00,10.8,-0.3,30.15,West,269,4.0,4.0,60,0.00,,---,0.00,VWS V14.01,2013-01-23 00:04:00,
2013-01-22 19:09:00,10.8,-0.3,30.15,West,264,3.0,6.0,60,0.00,,---,0.00,VWS V14.01,2013-01-23 00:09:00,
2013-01-22 19:14:00,10.7,-0.1,30.15,WNW,284,2.0,6.0,61,0.00,,---,0.00,VWS V14.01,2013-01-23 00:14:00,
2013-01-22 19:19:00,10.7,-0.4,30.16,WNW,282,2.0,10.0,60,0.00,,---,0.00,VWS V14.01,2013-01-23 00:19:00,
2013-01-22 19:24:00,10.7,-0.1,30.16,NW,304,2.0,10.0,61,0.00,,---,0.00,VWS V14.01,2013-01-23 00:24:00,
2013-01-22 19:29:00,10.6,-0.2,30.16,WNW,284,4.0,10.0,61,0.00,,---,0.00,VWS V14.01,2013-01-23 00:29:00,
2013-01-22 19:30:00,10.2,-0.9,30.17,West,278,4.0,11.0,60,0.00,,---,0.00,VWS V14.01,2013-01-23 00:30:00,
2013-01-22 19:34:00,10.6,-0.2,30.16,WSW,258,3.0,7.0,61,0.00,,---,0.00,VWS V14.01,2013-01-23 00:34:00,
2013-01-22 19:39:00,10.5,-0.3,30.16,West,265,3.0,7.0,61,0.00,,---,0.00,VWS V14.01,2013-01-23 00:39:00,
2013-01-22 19:44:00,10.5,0.1,30.17,WNW,285,2.0,7.0,62,0.00,,---,0.00,VWS V14.01,2013-01-23 00:44:00,
2013-01-22 19:49:00,10.5,0.1,30.16,WSW,250,5.0,13.0,62,0.00,,---,0.00,VWS V14.01,2013-01-23 00:49:00,
2013-01-22 19:54:00,10.4,0.0,30.17,WNW,284,5.0,13.0,62,0.00,,---,0.00,VWS V14.01,2013-01-23 00:54:00,
2013-01-22 19:59:00,10.3,0.2,30.17,West,279,2.0,13.0,63,0.00,,---,0.00,VWS V14.01,2013-01-23 00:59:00,
2013-01-22 20:00:00,9.9,-1.9,30.17,NW,307,4.0,11.0,58,0.00,,---,0.00,VWS V14.01,2013-01-23 01:00:00,
2013-01-22 20:05:00,10.3,-0.1,30.17,WNW,292,1.0,7.0,62,0.00,,---,0.00,VWS V14.01,2013-01-23 01:05:00,
2013-01-22 20:10:00,10.2,0.1,30.17,WSW,258,4.0,7.0,63,0.00,,---,0.00,VWS V14.01,2013-01-23 01:10:00,
2013-01-22 20:15:00,10.2,-0.2,30.17,WNW,289,3.0,7.0,62,0.00,,---,0.00,VWS V14.01,2013-01-23 01:15:00,
2013-01-22 20:20:00,10.2,-0.2,30.17,WNW,294,3.0,11.0,62,0.00,,---,0.00,VWS V14.01,2013-01-23 01:20:00,
2013-01-22 20:25:00,10.2,-0.6,30.17,WNW,290,2.0,11.0,61,0.00,,---,0.00,VWS V14.01,2013-01-23 01:25:00,
2013-01-22 20:30:00,10.2,-0.9,30.17,West,278,4.0,11.0,60,0.00,,---,0.00,VWS V14.01,2013-01-23 01:30:00,
2013-01-22 20:35:00,10.1,-1.0,30.18,NW,322,5.0,6.0,60,0.00,,---,0.00,VWS V14.01,2013-01-23 01:35:00,
2013-01-22 20:40:00,10.1,-1.4,30.17,NW,306,5.0,11.0,59,0.00,,---,0.00,VWS V14.01,2013-01-23 01:40:00,
2013-01-22 20:45:00,10.1,-1.4,30.17,NW,325,3.0,11.0,59,0.00,,---,0.00,VWS V14.01,2013-01-23 01:45:00,
2013-01-22 20:50:00,9.9,-1.5,30.18,NW,315,1.0,11.0,59,0.00,,---,0.00,VWS V14.01,2013-01-23 01:50:00,
2013-01-22 20:55:00,9.9,-1.5,30.18,NNW,341,2.0,11.0,59,0.00,,---,0.00,VWS V14.01,2013-01-23 01:55:00,
2013-01-22 21:00:00,9.1,-2.7,30.20,West,273,2.0,9.0,58,0.00,,---,0.00,VWS V14.01,2013-01-23 02:00:00,
2013-01-22 21:01:00,9.9,-1.9,30.17,NNW,338,6.0,6.0,58,0.00,,---,0.00,VWS V14.01,2013-01-23 02:01:00,
2013-01-22 21:06:00,9.9,-2.3,30.18,NW,309,6.0,10.0,57,0.00,,---,0.00,VWS V14.01,2013-01-23 02:06:00,
2013-01-22 21:11:00,9.9,-2.3,30.18,WNW,300,2.0,11.0,57,0.00,,---,0.00,VWS V14.01,2013-01-23 02:11:00,
2013-01-22 21:16:00,9.8,-2.4,30.18,WNW,291,0.0,11.0,57,0.00,,---,0.00,VWS V14.01,2013-01-23 02:16:00,
2013-01-22 21:21:00,9.7,-2.8,30.18,WNW,294,3.0,11.0,56,0.00,,---,0.00,VWS V14.01,2013-01-23 02:21:00,
2013-01-22 21:27:00,9.6,-2.9,30.18,WNW,290,4.0,13.0,56,0.00,,---,0.00,VWS V14.01,2013-01-23 02:27:00,
2013-01-22 21:30:00,8.7,-3.4,30.21,NNW,342,2.0,9.0,57,0.00,,---,0.00,VWS V14.01,2013-01-23 02:30:00,
2013-01-22 21:32:00,9.6,-2.9,30.19,NNW,340,4.0,9.0,56,0.00,,---,0.00,VWS V14.01,2013-01-23 02:32:00,
2013-01-22 21:37:00,9.5,-3.0,30.19,NNW,330,1.0,9.0,56,0.00,,---,0.00,VWS V14.01,2013-01-23 02:37:00,
2013-01-22 21:42:00,9.4,-2.8,30.19,NW,309,5.0,9.0,57,0.00,,---,0.00,VWS V14.01,2013-01-23 02:42:00,
2013-01-22 21:47:00,9.3,-2.5,30.19,NW,309,1.0,9.0,58,0.00,,---,0.00,VWS V14.01,2013-01-23 02:47:00,
2013-01-22 21:52:00,9.2,-2.6,30.20,WNW,294,0.0,9.0,58,0.00,,---,0.00,VWS V14.01,2013-01-23 02:52:00,
2013-01-22 21:57:00,9.1,-2.3,30.20,NNW,331,0.0,9.0,59,0.00,,---,0.00,VWS V14.01,2013-01-23 02:57:00,
2013-01-22 22:00:00,8.2,-3.2,30.20,West,267,4.0,7.0,59,0.00,,---,0.00,VWS V14.01,2013-01-23 03:00:00,
2013-01-22 22:02:00,9.2,-2.6,30.20,North,351,2.0,9.0,58,0.00,,---,0.00,VWS V14.01,2013-01-23 03:02:00,
2013-01-22 22:07:00,9.1,-2.7,30.20,NW,317,2.0,9.0,58,0.00,,---,0.00,VWS V14.01,2013-01-23 03:07:00,
2013-01-22 22:12:00,9.0,-2.8,30.20,West,272,4.0,9.0,58,0.00,,---,0.00,VWS V14.01,2013-01-23 03:12:00,
2013-01-22 22:17:00,8.9,-2.8,30.20,West,274,1.0,9.0,58,0.00,,---,0.00,VWS V14.01,2013-01-23 03:17:00,
2013-01-22 22:23:00,8.8,-3.3,30.21,West,280,1.0,9.0,57,0.00,,---,0.00,VWS V14.01,2013-01-23 03:23:00,
2013-01-22 22:28:00,8.7,-3.0,30.21,West,272,2.0,9.0,58,0.00,,---,0.00,VWS V14.01,2013-01-23 03:28:00,
2013-01-22 22:30:00,7.9,-4.2,30.20,West,276,2.0,10.0,57,0.00,,---,0.00,VWS V14.01,2013-01-23 03:30:00,
2013-01-22 22:33:00,8.6,-3.5,30.20,WNW,288,2.0,5.0,57,0.00,,---,0.00,VWS V14.01,2013-01-23 03:33:00,
2013-01-22 22:38:00,8.6,-3.5,30.20,West,265,4.0,6.0,57,0.00,,---,0.00,VWS V14.01,2013-01-23 03:38:00,
2013-01-22 22:43:00,8.5,-3.2,30.20,NW,321,1.0,7.0,58,0.00,,---,0.00,VWS V14.01,2013-01-23 03:43:00,
2013-01-22 22:48:00,8.3,-3.1,30.20,WNW,301,3.0,7.0,59,0.00,,---,0.00,VWS V14.01,2013-01-23 03:48:00,
2013-01-22 22:53:00,8.2,-3.2,30.20,WNW,287,1.0,7.0,59,0.00,,---,0.00,VWS V14.01,2013-01-23 03:53:00,
2013-01-22 22:58:00,8.2,-3.2,30.20,WNW,303,2.0,7.0,59,0.00,,---,0.00,VWS V14.01,2013-01-23 03:58:00,
2013-01-22 23:00:00,7.6,-4.1,30.19,NW,322,2.0,9.0,58,0.00,,---,0.00,VWS V14.01,2013-01-23 04:00:00,
2013-01-22 23:04:00,8.1,-3.6,30.20,West,278,4.0,10.0,58,0.00,,---,0.00,VWS V14.01,2013-01-23 04:04:00,
2013-01-22 23:09:00,8.2,-3.9,30.20,NW,315,0.0,10.0,57,0.00,,---,0.00,VWS V14.01,2013-01-23 04:09:00,
2013-01-22 23:14:00,8.1,-3.6,30.20,WNW,294,0.0,10.0,58,0.00,,---,0.00,VWS V14.01,2013-01-23 04:14:00,
2013-01-22 23:19:00,8.0,-4.1,30.20,WNW,290,2.0,10.0,57,0.00,,---,0.00,VWS V14.01,2013-01-23 04:19:00,
2013-01-22 23:24:00,8.0,-4.1,30.20,WSW,254,2.0,10.0,57,0.00,,---,0.00,VWS V14.01,2013-01-23 04:24:00,
2013-01-22 23:29:00,7.9,-4.2,30.20,WNW,303,2.0,10.0,57,0.00,,---,0.00,VWS V14.01,2013-01-23 04:29:00,
2013-01-22 23:30:00,7.3,-4.0,30.19,NW,304,1.0,7.0,59,0.00,,---,0.00,VWS V14.01,2013-01-23 04:30:00,
2013-01-22 23:34:00,7.8,-4.2,30.20,WSW,244,3.0,6.0,57,0.00,,---,0.00,VWS V14.01,2013-01-23 04:34:00,
2013-01-22 23:39:00,7.8,-4.2,30.20,WNW,293,2.0,6.0,57,0.00,,---,0.00,VWS V14.01,2013-01-23 04:39:00,
2013-01-22 23:44:00,7.7,-4.3,30.19,West,271,2.0,6.0,57,0.00,,---,0.00,VWS V14.01,2013-01-23 04:44:00,
2013-01-22 23:50:00,7.7,-4.0,30.19,WNW,284,3.0,6.0,58,0.00,,---,0.00,VWS V14.01,2013-01-23 04:50:00,
2013-01-22 23:55:00,7.6,-4.1,30.19,WNW,296,2.0,6.0,58,0.00,,---,0.00,VWS V14.01,2013-01-23 04:55:00,